Regional Weather Roundup
Issued by NWS Grand Forks, ND

Home | Current Version | Previous Version | Graphics & Text | Print | Product List | Glossary On
Versions: 1 2 3 4 5 6 7 8 9 10 11 12 13 14 15 16 17 18 19 20 21 22 23 24 25 26 27 28 29 30 31 32 33 34 35 36 37 38 39 40 41 42 43 44 45 46 47 48 49 50
000
ASUS43 KFGF 231610
RWRFGF
PRAIRIE TO PINES  WEATHER ROUNDUP
NATIONAL WEATHER SERVICE EASTERN NORTH DAKOTA/GRAND FORKS ND
1000 AM CST THU NOV 23 2017

 **SATELLITE DATA USED TO AUGMENT SKY COVER AT AUTOMATED STATIONS**
 *****  WEATHER ACROSS EASTERN NORTH DAKOTA  *****

CITY           SKY/WX    TMP DP  RH WIND       PRES   REMARKS
GRAND FORKS    CLOUDY    31  29  92 S10       29.83F WCI  22
GRAND FRKS AFB CLOUDY    31  30  94 S7        29.81F WCI  25
GRAND FRKS NWS   N/A     30 N/A N/A S3          N/A
DEVILS LAKE    FAIR      25  23  92 SE13      29.75F WCI  14
FARGO          CLOUDY    29  28  96 S10       29.85F FOG     WCI  20
WAHPETON ARPT  NOT AVBL
$$

 ***** WEATHER ACROSS CENTRAL AND WESTERN NORTH DAKOTA  *****

CITY           SKY/WX    TMP DP  RH WIND       PRES   REMARKS
BISMARCK       FAIR      36  32  85 E3        29.77F
MINOT          FAIR      43  36  76 SW10      29.65F
JAMESTOWN      FAIR      34  28  79 S12       29.76F
MINOT AFB      FAIR      41  36  83 SW6       29.63F
GARRISON         N/A     36  36 100 S3        29.70F
WILLISTON      FAIR      42  38  85 SW8       29.67F
DICKINSON      FAIR      51  39  63 W12       29.74F
HETTINGER      FAIR      48  39  71 W7        29.83F
$$

 *****  OTHER AIRPORT OBSERVATIONS IN OUR AREA  *****

CITY           SKY/WX    TMP DP  RH WIND       PRES   REMARKS
WALHALLA       FAIR      27  27 100 SE7       29.80F WCI  19
GRAFTON AIRPOR CLOUDY    28  30 100 S7        29.84F WCI  21
VALLEY CITY AR FAIR      28  28 100 S13       29.79F WCI  18
CANDO          FAIR      27  27 100 SE9       29.75S WCI  17
CAVALIER APRT  CLOUDY    25  27 100 CALM      29.81F FOG
GWINNER          N/A     30  27  86 S12       29.83F WCI  21
SHEYENNE NWR     N/A     30  28  91 S7        29.95S WCI  23
ROLLA          FAIR      23  23 100 S7        29.71F WCI  15
 ***** THE ABOVE OBSERVATIONS ARE NON NWS ARE NOT QUALITY
       CONTROLLED AND MAY MIS-REPORT RAIN FOR SNOW...
$$

  *****  WEATHER ACROSS NORTHERN MINNESOTA  *****

CITY           SKY/WX    TMP DP  RH WIND       PRES   REMARKS
FLAG ISLAND    CLOUDY    21  18  86 CALM      29.82F
WARROAD        FAIR      21  18  86 SW5       29.83F WCI  15
ROSEAU         CLOUDY    25  19  80 SW3       29.82F
HALLOCK        CLOUDY    27  27 100 S9        29.82F FOG     WCI  17
THF RVR FALLS  FOG       26  26 100 S9        29.84F VSB 1/4 WCI  17
BAUDETTE       CLOUDY    21  17  84 CALM      29.83F
WASKISH        CLOUDY    25  21  86 W8        29.85F WCI  16
CROOKSTON      CLOUDY    30  27  86 S9        29.85F WCI  22
STEPHEN NDAWN    N/A     27  27 100 S7          N/A  WCI  19
GREENBUSH NDAW   N/A     27  25  93 S3          N/A
$$
  *****  WEATHER ACROSS CENTRAL AND WEST MINNESOTA  *****

CITY           SKY/WX    TMP DP  RH WIND       PRES   REMARKS
FOSSTON        FOG       25  25 100 S7        29.86F VSB 1/4 WCI  17
BEMIDJI        FOG       21  20  96 SW5       29.86F VSB 1/4 WCI  15
PARK RAPIDS    FAIR      24  19  81 NW3       29.87S
ELBOW LAKE     FAIR      26  20  80 E5        29.90F HAZE    WCI  20
WADENA         FAIR      28  19  69 SW6       29.88F WCI  22
DETROIT LAKES  FOG       28  28 100 CALM      29.88F VSB 1/2
MOORHEAD       CLOUDY    27  25  93 CALM      29.88F FOG
FERGUS FALLS   CLOUDY    25  19  80 SE5       29.91F WCI  19
MORRIS MN      FAIR      30  19  64 CALM      29.91F
STAPLES        FAIR      28  19  69 CALM      29.89F
$$
  *****  WEATHER ELSEWHERE ACROSS MINNESOTA  *****

CITY           SKY/WX    TMP DP  RH WIND       PRES   REMARKS
DULUTH         PTSUNNY   25  20  81 W9        29.87S WCI  15
INTRNTL FALLS  CLOUDY    23  17  78 SW3       29.85S
ELY            CLOUDY    21  18  86 W6        29.84S WCI  14
CLOQUET        CLOUDY    27  19  74 W5        29.89R WCI  21
WHEATON        FAIR      30  21  69 SE6       29.90F WCI  24
BRAINERD       FAIR      24  18  77 SW3       29.91S HAZE
HIBBING        CLOUDY    22  18  85 SW5       29.86S WCI  16
ALEXANDRIA     FAIR      31  21  66 SW7       29.90F WCI  24
SAINT CLOUD    FAIR      31  21  66 CALM      29.93S
MINNEAPOLIS    FAIR      33  21  61 NW3       29.95R
$$

  *****  WEATHER ACROSS SOUTH DAKOTA  *****

CITY           SKY/WX    TMP DP  RH WIND       PRES   REMARKS
SIOUX FALLS    PTSUNNY   39  26  59 SW6       29.98S
BROOKINGS      FAIR      34  25  69 S6        29.94F
WATERTOWN      FAIR      33  26  75 S7        29.90F
HURON          FAIR      34  28  79 S10       29.93F
SISSETON         N/A     35  25  66 SE10      29.85F
ABERDEEN       FAIR      33  27  78 S13       29.87F WCI  24
MITCHELL       FAIR      38  29  70 S8        29.97F
PIERRE         FAIR      46  39  76 SW9       29.88F
MOBRIDGE       FAIR      42  37  82 SE10      29.80F
RAPID CITY     FAIR      57  39  51 CALM      29.94F
$$

  *****  SOME WEATHER IN NEARBY STATES *****

CITY           SKY/WX    TMP DP  RH WIND       PRES   REMARKS
GLASGOW MT     FAIR      54  40  59 W7        29.65F
GREAT FALLS MT FAIR      58  36  43 SW23G32   29.74F
CHEYENNE WY    FAIR      55  34  45 W17       30.19F
SCOTTSBLUFF NE FAIR      47  42  83 E3        30.10F
OMAHA NE       FAIR      45  33  63 N6        30.03S
DES MOINES IA  PTSUNNY   42  26  53 NW8       30.00R
DAVENPORT IA   FAIR      38  23  55 SW10      30.00S
CHICAGO IL     FAIR      40  21  46 SW12      29.99F
EAU CLAIRE WI  FAIR      31  19  61 W3        29.93F
LA CROSSE WI   FAIR      36  19  50 NW6       29.96R
$$

  *****  SOME NATIONAL WEATHER *****

CITY           SKY/WX    TMP DP  RH WIND       PRES   REMARKS
LA GUARDIA NY  FAIR      39  21  48 NW9       30.10F
RALEIGH NC     PTSUNNY   43  26  51 NE6       30.18S
ATLANTA GA     FAIR      53  34  48 NE9       30.08F
NEW ORLEANS LA FAIR      51  37  58 N12       30.12S
OKLAHOMA CITY  FAIR      50  24  36 SW7       30.12F
ALBUQUERQUE NM PTSUNNY   48  30  49 N8        30.37S
SALT LAKE CITY PTSUNNY   51  41  68 SE7       30.27R
LOS ANGELES CA FAIR      75  41  29 NE3       30.02R
BOISE ID       FAIR      48  45  89 CALM      30.09R
SEATTLE WA     LGT RAIN  54  52  93 S10       29.82S FOG
$$

*** WEATHER ACROSS MANITOBA...SASKATCHEWAN AND ONTARIO ***
                ***ONTARIO***

CITY           SKY/WX    TMP DP  RH WIND       PRES   REMARKS
GERALDTON      LGT SNOW  19  16  86 NW5       29.72S WCI  13
THUNDER BAY    CLOUDY    27  19  74 W9        29.83S WCI  17
SIOUX LOOKOUT  FLURRIES  18  12  79 N5        29.78F WCI  11
TORONTO        CLOUDY    36  21  55 SW13      30.02F
BIG TROUT LK   FLURRIES   7   1  78 VRB2      29.77
PICKLE LAKE    FLURRIES   9   1  72 NW6       29.77S WCI  -1
DRYDEN         CLOUDY    19  16  86 W6        29.78F WCI  11
KENORA         PTSUNNY   19  14  79 SW3       29.79F
$$
                *** MANITOBA***

CITY           SKY/WX    TMP DP  RH WIND       PRES   REMARKS
BRANDON        CLOUDY    21  19  93 SE10      29.70F FOG     WCI  10
DAUPHIN        PTSUNNY   19  14  79 SE13      29.70F WCI   7
ISLAND LAKE    MOSUNNY    5   0  78 N3        29.80F
PILOT MOUND      N/A     27  25  93 SE13        N/A  WCI  16
THE PAS        LGT SNOW   9   3  78 SE10      29.68F VSB 1   WCI  -6
THOMPSON       CRYSTALS  -9 -15  77 CALM      29.77F
WINNIPEG       PTSUNNY   21  16  79 SE8       29.79F WCI  12
LYNN LAKE      MOCLDY    -8 -11  84 SE5       29.66F WCI -19
CHURCHILL      PTCLDY    -6 -13  71 W16G22    29.64F WCI -28
$$
                ***SASKATCHEWAN***

CITY           SKY/WX    TMP DP  RH WIND       PRES   REMARKS
ESTEVAN        MOSUNNY   36  36 100 S10       29.60F
KINDERSLEY     MOCLDY    39  34  81 SW13G20   29.35F
LLOYDMINSTER   PTCLDY    19  18  93 VRB2      29.27F
PRINCE ALBERT  CLOUDY    16  12  86 E10       29.44F WCI   3
REGINA         MOSUNNY   25  25 100 E10       29.50F WCI  15
YORKTON        CLOUDY    23  21  93 SE13G21   29.59F WCI  11
N. BATTLEFORD  PTCLDY    21  18  86 E15G21    29.33F WCI   8
LA RONGE       FLURRIES  10   5  79 E12G20    29.45F WCI  -4
SASKATOON      MOCLDY    21  19  93 SE9       29.38F WCI  11
SWIFT CURRENT  CLEAR     46  37  71 SW28G36   29.45F
$$
NOTE: THESE ARE AUTOMATED STATIONS WITH LIMITED QUALITY CONTROL
      "FAIR" INDICATES FEW OR NO CLOUDS BELOW 12,000 FEET WITH NO
      SIGNIFICANT WEATHER AND/OR OBSTRUCTIONS TO VISIBILITY.
      SKY/WX - SKY CONDITION AND SIGNIFICANT WEATHER.
      TMP - AIR TEMPERATURE.    DP   - DEWPOINT TEMPERATURE.
      RH  - RELATIVE HUMIDITY.  PRES - PRESSURE.
      HX  - HEAT INDEX.         WCI  - WIND CHILL INDEX.
$




USA.gov is the U.S. government's official web portal to all federal, state and local government web resources and services.